DIAMOND RED (42783 NORAD) Tracking and Keplerian Element Data

This shows tracking and keplerian element data for the satellite.

Feedback or suggestion? Click here.




ElementValue
Catalog42783
NameDIAMOND RED
Epoch Orbit7719
Epoch Day317.35637694
Epoch Year2018
RAAN14.4448
Inclination97.383
Eccentricity0.0010654
Argument of Perigee274.1062
Mean Anonmoly85.8957
Mean Motion15.2176346
Decay Rate1.062E-05
L11 42783U 17036U 18317.35637694 .00001062 00000-0 49829-4 0 9999
L22 42783 97.3830 14.4448 0010654 274.1062 85.8957 15.21763460 77190

Live tracking and technical data element details for DIAMOND RED (NORAD 42783). DIAMOND RED can be tracked NOW for your location showing map with azimuth and elevation plus other details from your city location.

Track the satellite on the map from your city or location and see movement details for azimuth, elevation, latitude, longitude, range, height, and movement on the map or in text.







IsCatalogInMostPopularTable: catalog: 42783, numindb: 215
Update: records affected: 1



GetName: 42783 DIAMOND RED

Hit Count: updated at: Wed, 14 Nov 2018 16:19:33 GMT